This is the latest recevied weather packets stored in our database for station/object GW1596. If no packets are shown the sender has not sent any weather packets the latest 10 day(s).
| Time | Temp. | Humidity | Pressure | Rain* | Wind** | Luminosity | Snow |
|---|---|---|---|---|---|---|---|
| 1777873000 | 7.78° C | 82% | 1017.6 hPa | 0 mm | - | - | - |
| 1777868671 | 8.33° C | 80% | 1017.2 hPa | 0 mm | - | - | - |
| 1777867604 | 8.33° C | 76% | 1017.2 hPa | 0 mm | - | - | - |
| 1777865772 | 8.89° C | 77% | 1017.6 hPa | 0 mm | - | - | - |
| 1777865436 | 8.89° C | 76% | 1017.6 hPa | 0 mm | - | - | - |
| 1777863254 | 10° C | 68% | 1017.6 hPa | 0 mm | - | - | - |
| 1777862540 | 10.56° C | 67% | 1017.6 hPa | 0 mm | - | - | - |
| 1777861827 | 10.56° C | 70% | 1017.2 hPa | 0 mm | - | - | - |
| 1777861114 | 10.56° C | 64% | 1017.6 hPa | 0 mm | - | - | - |
| 1777860380 | 10.56° C | 63% | 1017.2 hPa | 0 mm | - | - | - |
| 1777857134 | 11.11° C | 62% | 1017.2 hPa | 0 mm | - | - | - |
| 1777856078 | 11.67° C | 61% | 1017.2 hPa | 0 mm | - | - | - |
| 1777849972 | 15° C | 36% | 1017.6 hPa | 0 mm | - | - | - |
| 1777848143 | 16.11° C | 32% | 1017.6 hPa | 0 mm | - | - | - |
| 1777836981 | 16.67° C | 31% | 1019.3 hPa | 0 mm | - | - | - |
| 1777836643 | 16.11° C | 29% | 1019.3 hPa | 0 mm | - | - | - |
| 1777832334 | 14.44° C | 36% | 1020.3 hPa | 0 mm | - | - | - |
| 1777830500 | 13.33° C | 34% | 1020.6 hPa | 0 mm | - | - | - |
| 1777824410 | 12.78° C | 35% | 1022 hPa | 0 mm | - | - | - |
| 1777823677 | 12.22° C | 39% | 1022.3 hPa | 0 mm | - | - | - |
| 1777821138 | 11.11° C | 42% | 1022.3 hPa | 0 mm | - | - | - |
| 1777820790 | 11.11° C | 44% | 1022.3 hPa | 0 mm | - | - | - |
| 1777820078 | 11.11° C | 47% | 1022.3 hPa | 0 mm | - | - | - |
| 1777818641 | 11.11° C | 49% | 1022.6 hPa | 0 mm | - | - | - |
| 1777816828 | 8.89° C | 61% | 1022.6 hPa | 0 mm | - | - | - |
* Rain since midnight (hover to see other rain measurements)
** Current wind speed in m/s (hover to see current wind gust speed)